TimePST,TemperatureF,Dew PointF,Humidity,Sea Level PressureIn,VisibilityMPH,Wind Direction,Wind SpeedMPH,Gust SpeedMPH,PrecipitationIn,Events,Conditions,WindDirDegrees,DateUTC
12:53 AM,35.1,33.1,92,30.03,8.0,SSW,3.5,-,N/A,,Overcast,200,2012-12-13 08:53:00
1:10 AM,35.6,33.8,93,30.01,8.0,South,5.8,-,N/A,,Overcast,190,2012-12-13 09:10:00
1:32 AM,35.6,32.0,87,30.01,10.0,South,5.8,-,N/A,,Overcast,170,2012-12-13 09:32:00
1:53 AM,35.1,32.0,89,30.04,10.0,Calm,Calm,-,N/A,,Overcast,0,2012-12-13 09:53:00
2:01 AM,35.6,33.8,93,30.01,10.0,Calm,Calm,-,N/A,,Overcast,0,2012-12-13 10:01:00
2:19 AM,35.6,33.8,93,30.01,10.0,South,4.6,-,N/A,,Overcast,170,2012-12-13 10:19:00
2:50 AM,35.6,33.8,93,30.01,5.0,Calm,Calm,-,N/A,,Overcast,0,2012-12-13 10:50:00
2:53 AM,35.1,34.0,96,30.03,6.0,Calm,Calm,-,N/A,,Overcast,0,2012-12-13 10:53:00
3:31 AM,33.8,32.0,93,30.00,10.0,Calm,Calm,-,N/A,,Overcast,0,2012-12-13 11:31:00
3:45 AM,33.8,30.2,87,30.01,10.0,Calm,Calm,-,N/A,,Overcast,0,2012-12-13 11:45:00
3:53 AM,33.1,30.9,92,30.03,10.0,Calm,Calm,-,N/A,,Overcast,0,2012-12-13 11:53:00
4:53 AM,34.0,32.0,92,30.05,9.0,Calm,Calm,-,N/A,,Mostly Cloudy,0,2012-12-13 12:53:00
5:53 AM,34.0,32.0,92,30.06,10.0,Calm,Calm,-,N/A,,Overcast,0,2012-12-13 13:53:00
6:09 AM,33.8,30.2,87,30.04,1.8,South,5.8,-,N/A,,Overcast,170,2012-12-13 14:09:00
6:18 AM,33.8,32.0,93,30.03,0.5,South,4.6,-,N/A,Fog,Fog,180,2012-12-13 14:18:00
6:45 AM,32.0,30.2,93,30.03,0.2,Calm,Calm,-,N/A,Fog,Fog,0,2012-12-13 14:45:00
6:53 AM,30.9,30.0,96,30.07,0.2,Calm,Calm,-,N/A,Fog,Light Freezing Fog,0,2012-12-13 14:53:00
7:01 AM,30.2,30.2,100,30.04,0.2,Calm,Calm,-,N/A,Fog,Light Freezing Fog,0,2012-12-13 15:01:00
7:08 AM,30.2,30.2,100,30.04,0.2,Calm,Calm,-,N/A,Fog,Light Freezing Fog,0,2012-12-13 15:08:00
7:36 AM,33.8,32.0,93,30.03,0.2,Calm,Calm,-,N/A,Fog,Fog,0,2012-12-13 15:36:00
7:53 AM,33.1,32.0,96,30.06,0.2,Calm,Calm,-,N/A,Fog,Fog,0,2012-12-13 15:53:00
8:53 AM,33.1,32.0,96,30.07,0.2,Calm,Calm,-,N/A,Fog,Fog,0,2012-12-13 16:53:00
9:02 AM,33.8,33.8,100,30.04,0.2,Calm,Calm,-,N/A,Fog,Fog,0,2012-12-13 17:02:00
9:53 AM,34.0,33.1,96,30.07,0.2,Calm,Calm,-,N/A,Fog,Fog,0,2012-12-13 17:53:00
10:53 AM,35.1,34.0,96,30.05,0.2,Variable,4.6,-,N/A,Fog,Fog,0,2012-12-13 18:53:00
11:20 AM,33.8,33.8,100,30.01,0.2,NNW,3.5,-,N/A,Fog,Fog,340,2012-12-13 19:20:00
11:34 AM,33.8,33.8,100,30.00,0.2,WNW,4.6,-,N/A,Fog,Fog,290,2012-12-13 19:34:00
11:39 AM,33.8,33.8,100,30.00,0.5,NNW,3.5,-,N/A,Fog,Fog,330,2012-12-13 19:39:00
11:53 AM,35.1,33.1,92,30.04,2.5,NW,4.6,-,N/A,,Overcast,310,2012-12-13 19:53:00
12:00 PM,33.8,33.8,100,30.00,5.0,Calm,Calm,-,N/A,,Overcast,0,2012-12-13 20:00:00
12:07 PM,35.6,33.8,93,30.00,2.0,North,4.6,-,N/A,,Overcast,360,2012-12-13 20:07:00
12:53 PM,35.1,33.1,92,30.01,2.0,Calm,Calm,-,N/A,,Overcast,0,2012-12-13 20:53:00
1:00 PM,35.6,33.8,93,29.97,7.0,Calm,Calm,-,N/A,,Overcast,0,2012-12-13 21:00:00
1:53 PM,36.0,33.1,89,29.98,8.0,Calm,Calm,-,N/A,,Overcast,0,2012-12-13 21:53:00
5:23 PM,35.6,35.6,100,29.90,1.2,Calm,Calm,-,N/A,,Overcast,0,2012-12-14 01:23:00
5:46 PM,33.8,33.8,100,29.89,0.2,NNE,3.5,-,N/A,Fog,Fog,20,2012-12-14 01:46:00
5:53 PM,33.1,30.9,92,29.92,0.8,Calm,Calm,-,0.00,Snow,Light Snow,0,2012-12-14 01:53:00
5:55 PM,32.0,30.2,93,29.88,2.5,East,3.5,-,0.00,Snow,Light Snow,90,2012-12-14 01:55:00
5:58 PM,32.0,30.2,93,29.88,8.0,East,3.5,-,0.00,Snow,Light Snow,80,2012-12-14 01:58:00
6:24 PM,30.2,28.4,93,29.88,1.0,North,5.8,-,0.00,,Mist,10,2012-12-14 02:24:00
6:28 PM,30.2,28.4,93,29.88,0.2,North,5.8,-,0.00,Fog,Light Freezing Fog,10,2012-12-14 02:28:00
6:43 PM,32.0,30.2,93,29.88,0.2,North,4.6,-,0.00,Fog,Fog,10,2012-12-14 02:43:00
6:53 PM,30.9,30.0,96,29.91,0.2,NNE,3.5,-,0.00,Fog,Light Freezing Fog,20,2012-12-14 02:53:00
7:30 PM,28.4,28.4,100,29.86,0.2,SE,3.5,-,0.00,Fog-Snow,Light Snow,140,2012-12-14 03:30:00
7:53 PM,30.0,28.9,96,29.90,0.2,Calm,Calm,-,0.00,Fog,Light Freezing Fog,0,2012-12-14 03:53:00
8:07 PM,28.4,26.6,93,29.86,0.5,Calm,Calm,-,N/A,Fog,Light Freezing Fog,0,2012-12-14 04:07:00
8:16 PM,26.6,26.6,100,29.86,0.2,Calm,Calm,-,N/A,Fog,Light Freezing Fog,0,2012-12-14 04:16:00
8:33 PM,26.6,26.6,100,29.86,0.2,West,3.5,-,N/A,Fog,Light Freezing Fog,260,2012-12-14 04:33:00
8:53 PM,28.9,28.0,96,29.90,0.2,West,5.8,-,N/A,Fog,Light Freezing Fog,280,2012-12-14 04:53:00
10:18 PM,30.2,30.2,100,29.86,0.2,SW,3.5,-,N/A,Fog,Light Freezing Fog,220,2012-12-14 06:18:00
10:53 PM,30.9,30.0,96,29.89,0.2,Calm,Calm,-,0.00,Fog,Light Freezing Fog,0,2012-12-14 06:53:00
11:53 PM,32.0,30.0,92,29.88,0.2,Calm,Calm,-,N/A,Fog,Fog,0,2012-12-14 07:53:00